Flag for Norway Weather past 2 weeks in Tromsø, Norway

Now
42 °F

Passing clouds.


Feels Like: 39 °F
Forecast: 38 / 42 °F
Wind: 5 mph from Southwest

Location: Tromso / Langnes

Current Time: Oct 25, 2014 at 5:01:23 AM

Latest Report: Oct 25, 2014 at 4:00 AM


Visibility: 31 mi

Pressure: 29.68 "Hg

Humidity: 73%

Dew point: 34 °F

Location of TromsøLocation

Historic Weather in Tromsø — Graph

°F

Tromsø temperature yesterday

Maximum temperature yesterday: 44 °F (at 11:00 PM)
Minimum temperature yesterday: 39 °F (at 12:00 AM)
Average temperature yesterday: 41 °F

Past Weeks' High & Low Weather Summary

 TemperatureHumidityPressure
High45 °F (Oct 25, 12:00 AM)96% (Oct 15, 6:00 AM)30.16 "Hg (Oct 15, 6:00 AM)
Low23 °F (Oct 20, 5:00 AM)42% (Oct 10, 1:00 PM)29.59 "Hg (Oct 20, 5:00 AM)
Average35 °F75%29.89 "Hg
* Reported Oct 10 3:00 AM — Oct 25 3:00 AM, Tromsø, Weather by CustomWeather, © 2014

Note: Actual official high and low records may vary slightly from our data, if they occured in-between our weather recording intervals... More about our weather records

Advertising

Tromsø weather history for previous 24 hours

 ConditionsComfort  
Time TempWeatherWind HumidityBarometerVisibility
3:00 AM
Oct 25
43 °FOvercast.5 mph71%29.68 "Hg31 mi
2:00 AM43 °FOvercast.6 mph73%29.68 "Hg31 mi
1:00 AM44 °FOvercast.7 mph64%29.69 "Hg31 mi
12:00 AM45 °FOvercast.9 mph58%29.67 "Hg31 mi
11:00 PM
Oct 24
44 °FOvercast.9 mph59%29.67 "Hg31 mi
10:00 PM43 °FClear.8 mph60%29.66 "Hg31 mi
9:00 PM42 °FClear.9 mph65%29.65 "Hg31 mi
8:00 PM42 °FClear.9 mph62%29.64 "Hg31 mi
7:00 PM42 °FClear.8 mph63%29.63 "Hg31 mi
6:00 PM42 °FOvercast.12 mph64%29.62 "Hg31 mi
5:00 PM42 °FPassing clouds.10 mph62%29.63 "Hg31 mi
4:00 PM42 °FSunny.12 mph62%29.61 "Hg31 mi
3:00 PM42 °FPassing clouds.12 mph65%29.61 "Hg25 mi
2:00 PM42 °FSunny.12 mph63%29.62 "Hg28 mi
1:00 PM42 °FPassing clouds.10 mph61%29.62 "Hg31 mi
12:00 PM40 °FSunny.10 mph63%29.64 "Hg31 mi
11:00 AM40 °FSunny.12 mph64%29.65 "Hg28 mi
10:00 AM40 °FPassing clouds.12 mph62%29.66 "Hg31 mi
9:00 AM40 °FPartly sunny.10 mph63%29.67 "Hg31 mi
8:00 AM40 °FOvercast.12 mph63%29.69 "Hg31 mi
7:00 AM40 °FPassing clouds.12 mph64%29.71 "Hg31 mi
6:00 AM40 °FOvercast.12 mph63%29.73 "Hg31 mi
5:00 AM40 °FPassing clouds.13 mph65%29.73 "Hg31 mi
Weather by CustomWeather, © 2014

See weather overviewHow to use our weather pages